Wind_Speed
63 63 64 64 64 65 66 66 66 67 67 68 68 69 70 70 71 71 71 72 72 72 73 73 73 74 75 76 77 78 78 79 81 82 83 84 85 86 87 88 89 91 91 92 93 94 94 94 95 95 96 97 97 98 99 100 101 102 102 103 104 105 106 107 108 106 103 101 101 102 103 104 103 103 104 104 104 105 106 106 107 107 107 107 107
63 64 64 64 65 65 66 66 66 65 65 65 65 65 66 66 67 67 67 68 69 69 70 71 71 72 73 74 75 76 77 78 79 80 82 83 84 85 86 87 89 90 91 92 93 94 95 95 96 97 98 98 99 100 101 102 103 104 105 105 106 107 108 109 110 109 107 103 103 103 104 106 105 104 106 106 105 106 107 107 107 108 108 108 108
64 64 64 64 64 64 63 63 62 62 62 62 63 64 64 65 66 67 68 69 70 71 72 73 74 75 76 77 78 79 80 81 82 83 85 85 86 88 89 90 91 92 93 94 95 97 98 99 99 100 101 101 102 102 103 104 106 106 107 108 109 109 110 112 113 113 112 109 106 106 108 109 108 107 108 109 108 108 109 109 109 109 110 110 110
64 64 64 63 62 61 60 60 60 61 62 63 64 66 67 68 70 71 72 73 74 75 76 78 79 80 81 82 83 84 85 86 87 88 89 90 90 91 93 94 95 95 96 97 98 99 101 102 103 104 105 105 106 106 107 108 109 110 110 111 112 113 113 114 115 116 115 113 111 110 110 112 112 111 111 111 111 111 111 112 111 111 111 111 111
64 63 62 61 61 61 61 61 62 63 65 67 68 70 72 73 74 75 76 78 79 80 81 83 84 85 86 87 88 89 90 91 92 93 94 95 95 96 97 98 99 100 101 101 102 103 104 104 105 107 108 108 109 110 111 112 113 114 115 115 115 116 117 117 118 118 119 117 115 113 113 114 115 115 115 115 115 115 115 115 115 114 114 114 113
62 62 62 62 63 64 65 66 67 69 70 72 73 75 76 77 79 80 81 82 84 85 86 87 89 90 90 92 93 94 95 95 96 98 99 100 101 102 103 103 104 104 105 105 106 107 107 108 109 110 111 111 112 113 114 115 116 117 118 118 119 120 120 120 121 121 122 121 120 118 117 117 118 118 118 118 118 118 118 118 118 117 117 117 116
62 63 65 66 67 68 69 71 72 74 75 76 78 79 81 82 83 85 86 87 89 90 91 92 94 95 95 96 97 98 99 100 101 102 104 105 106 107 108 108 109 109 109 110 110 111 111 111 112 113 113 114 115 115 116 118 119 120 121 121 122 122 123 123 123 124 124 124 124 122 121 120 121 120 120 120 120 121 121 120 120 119 119 119 118
65 67 68 70 71 72 74 75 77 78 79 81 82 83 85 86 88 90 91 92 93 95 96 97 98 99 100 101 102 103 104 105 106 107 109 110 112 112 113 113 113 114 114 114 114 114 115 115 115 116 116 117 118 118 119 120 121 122 122 123 124 124 125 125 125 125 126 126 125 125 124 123 123 122 122 122 122 122 123 122 122 121 121 121 120
69 71 72 73 75 76 78 79 81 82 83 85 86 88 90 91 93 94 95 96 98 99 100 101 102 103 104 105 106 107 108 109 111 112 113 115 116 117 117 117 117 117 117 117 117 118 118 118 118 118 119 119 120 121 121 122 123 123 124 124 125 126 126 126 126 127 127 127 127 126 126 125 124 124 123 124 124 124 124 124 124 124 124 123 123
73 74 76 77 79 80 82 83 85 87 88 90 92 93 95 96 98 99 100 101 102 103 103 104 105 107 108 109 110 111 113 114 115 116 118 119 120 120 121 121 121 120 120 120 120 120 120 120 120 120 121 121 122 122 123 124 124 125 125 126 126 127 126 126 127 127 127 127 127 127 126 126 125 125 124 124 125 125 125 126 126 127 127 127 126
77 78 80 81 83 85 87 88 90 92 94 95 97 98 100 101 102 103 104 105 106 107 108 109 110 111 112 113 114 115 116 117 119 120 121 122 123 123 123 123 123 123 122 122 122 122 122 122 122 122 122 122 123 123 124 124 124 125 125 126 126 126 126 126 126 126 127 127 126 126 126 126 125 124 124 124 124 124 125 126 127 127 128 128 128
81 83 85 87 88 90 92 94 95 97 98 100 101 102 103 104 105 106 107 109 110 111 112 113 114 115 116 117 118 118 119 120 121 122 123 123 124 125 125 124 124 123 123 123 123 123 123 123 123 123 123 123 123 123 123 123 123 123 124 124 125 125 125 125 125 125 126 126 126 126 126 125 125 124 123 123 124 125 125 126 127 127 128 129 129
87 89 90 92 94 95 97 98 99 101 102 103 104 105 106 107 109 109 110 112 113 114 115 116 117 118 119 119 120 120 121 122 122 123 123 124 124 125 126 125 124 122 122 122 122 122 122 122 122 122 121 121 121 121 121 121 121 121 121 122 122 122 122 122 123 123 124 124 124 124 124 125 125 124 124 124 125 126 127 127 127 128 129 129 130
91 93 95 96 98 99 100 101 102 104 105 107 108 109 110 110 111 112 113 114 115 116 116 117 118 119 120 120 120 120 121 121 122 122 122 122 122 123 123 123 121 120 119 119 119 118 118 118 118 117 117 117 117 117 117 117 117 117 118 118 118 118 118 118 119 119 120 120 121 121 120 121 121 120 121 122 123 125 125 125 125 125 126 126 127
95 96 98 99 100 102 103 104 105 107 108 109 110 111 112 112 113 114 115 115 116 117 117 118 118 119 119 119 119 118 118 118 118 117 117 117 116 117 116 115 114 113 112 112 112 111 111 111 111 110 110 110 110 111 111 112 112 113 113 113 113 114 114 114 114 114 115 116 116 115 115 115 115 115 115 116 117 118 118 118 118 118 118 119 119
97 99 101 102 103 104 105 106 107 108 109 110 111 112 112 113 114 115 115 116 116 117 117 117 117 116 116 116 115 113 112 112 110 109 108 107 107 107 106 105 104 103 102 102 102 101 101 101 101 101 101 102 103 104 105 106 106 107 108 108 109 110 109 109 110 110 110 110 110 110 109 109 109 110 110 110 110 111 111 111 111 111 112 113 113
100 101 103 104 104 105 106 107 108 109 110 111 112 112 113 114 114 115 115 114 114 114 114 113 112 111 110 109 108 105 103 102 101 100 98 98 98 98 96 95 94 93 92 92 92 92 91 91 92 92 92 93 94 95 97 99 101 102 102 103 104 104 104 104 105 105 104 104 104 104 103 103 104 104 104 104 104 105 106 105 105 106 108 108 108
101 102 103 104 105 106 107 108 109 110 111 112 112 112 113 113 113 112 112 111 109 108 107 105 103 102 101 99 98 96 94 93 93 92 91 91 92 91 90 89 88 87 86 85 84 84 83 83 84 84 83 83 84 86 89 93 95 97 97 97 98 98 98 99 99 98 98 98 98 98 98 98 98 98 98 97 98 99 100 101 101 101 102 103 104
101 102 103 105 106 107 108 109 110 110 111 111 111 111 110 109 108 107 106 104 103 101 99 97 95 94 93 92 92 91 89 88 88 87 87 87 88 88 87 86 84 83 82 81 79 79 78 78 77 76 75 75 76 78 82 86 89 90 90 91 91 92 92 92 92 92 91 92 92 92 92 92 93 93 93 93 94 95 96 97 97 97 98 99 99
102 103 104 106 107 108 108 109 109 109 109 108 107 106 105 103 101 100 98 97 96 94 93 92 91 90 89 89 89 88 88 87 86 86 86 85 86 87 86 84 83 82 80 78 77 76 74 73 72 71 70 70 70 71 75 80 82 82 83 84 85 86 86 85 85 85 85 85 86 86 87 87 88 89 89 89 89 90 91 92 93 93 94 95 94
103 104 105 106 106 106 106 106 106 105 104 103 101 99 98 96 94 93 92 92 91 90 90 90 89 88 88 88 87 87 87 86 85 85 84 84 85 86 86 84 83 82 80 78 76 73 71 70 69 67 67 66 66 67 71 74 74 73 75 77 78 78 78 77 78 79 79 80 80 81 81 82 83 83 83 83 83 84 85 86 87 89 90 90 89
104 104 104 104 103 102 102 101 99 98 97 95 94 92 91 91 91 90 90 90 90 89 89 88 88 87 86 86 85 85 84 84 83 82 81 81 82 83 83 81 81 80 79 77 75 73 71 69 67 66 65 64 65 66 66 67 66 66 67 70 70 70 70 70 71 72 72 73 73 74 75 76 76 76 76 77 77 78 79 80 81 82 83 83 83
101 101 100 99 97 96 94 93 92 91 90 89 89 88 88 88 89 89 89 88 88 87 86 86 85 83 82 82 81 81 81 81 80 79 79 78 78 80 80 79 78 77 76 75 74 72 70 68 66 64 63 62 64 64 62 61 60 61 62 62 63 62 62 63 63 64 65 66 66 67 68 68 68 68 68 68 69 69 70 71 72 73 73 74 74
96 95 93 92 90 89 88 87 86 86 86 86 86 86 86 86 86 86 86 85 84 83 82 81 81 80 79 79 79 79 79 79 78 78 78 77 77 77 78 77 76 75 74 73 71 70 68 67 65 63 61 61 62 61 59 58 57 57 56 56 56 55 54 54 55 56 56 57 57 57 57 57 57 57 58 58 59 59 60 61 63 64 65 66 66
89 87 86 84 84 83 83 84 84 84 84 84 84 84 83 83 82 81 81 81 80 80 79 79 78 78 78 78 78 78 78 78 77 77 77 76 75 75 75 74 73 73 72 71 69 68 66 65 64 61 60 60 60 59 57 56 55 54 52 51 50 49 49 48 49 48 48 47 47 47 47 48 49 49 50 51 52 53 55 56 58 60 61 62 62
82 81 81 81 81 81 81 82 82 82 81 81 80 79 79 78 77 77 77 77 78 78 78 78 78 78 78 78 77 77 76 76 76 75 75 74 74 73 72 71 70 70 69 68 67 65 63 62 61 60 59 58 58 57 56 55 53 52 50 47 46 46 46 46 45 44 43 42 42 42 43 44 45 46 47 49 50 52 54 55 56 57 58 59 58
78 78 79 79 79 79 79 79 78 77 76 75 75 74 74 75 75 75 75 76 76 77 77 77 77 77 77 76 75 74 73 73 72 72 71 71 70 69 69 69 67 67 65 64 64 62 60 59 58 57 56 56 56 56 55 53 51 49 47 46 45 45 44 44 43 42 41 41 41 42 43 45 46 46 48 49 50 52 53 54 54 54 54 54 53
77 77 77 76 76 75 75 74 72 71 71 70 70 71 72 72 73 74 74 75 75 75 75 74 74 74 73 72 70 69 68 67 66 66 65 65 65 65 65 65 63 62 60 60 60 59 56 55 55 54 54 54 54 54 53 51 49 47 46 45 45 44 44 43 42 42 42 42 42 43 44 46 46 47 48 49 50 50 50 50 49 48 48 49 48
74 74 73 72 71 70 69 68 67 66 66 67 68 69 70 71 72 72 73 73 73 73 72 70 69 68 67 65 64 62 60 60 59 59 60 60 59 58 58 58 58 57 56 57 57 55 52 50 50 51 51 52 52 51 50 48 47 46 46 45 45 45 44 44 43 43 43 43 43 44 44 45 46 47 47 46 45 45 45 44 44 44 44 44 43
70 69 68 67 66 65 64 63 63 63 63 64 65 66 68 70 71 71 70 70 69 68 66 64 63 61 59 58 57 55 54 53 53 54 54 53 53 52 52 53 53 53 53 52 51 48 46 45 46 48 49 49 48 47 46 45 45 45 45 45 45 45 45 44 44 44 43 43 43 43 44 45 45 44 43 41 40 40 40 40 40 40 40 39 39
65 64 62 61 61 60 59 59 59 60 61 62 63 64 65 67 68 68 66 64 63 61 59 58 56 54 52 50 49 48 48 47 47 47 47 48 49 49 48 47 48 48 47 46 44 43 42 42 44 46 46 45 44 42 41 41 42 42 43 43 43 43 43 43 42 42 41 41 42 42 43 42 40 38 36 36 36 36 36 36 36 36 36 36 36
60 59 57 57 56 56 56 56 56 57 58 59 61 62 62 61 61 61 60 58 56 54 52 51 49 47 46 44 42 41 41 40 40 40 41 42 44 44 43 43 43 43 41 40 40 40 40 41 42 43 42 41 40 38 37 38 38 39 39 40 40 40 39 39 39 39 40 40 40 40 38 35 33 32 32 33 33 33 33 33 33 33 33 33 32
55 54 53 52 52 52 52 52 53 54 56 57 58 58 57 55 53 52 52 52 50 48 45 44 42 41 39 38 36 34 33 34 34 34 35 36 37 37 38 39 39 38 37 37 38 38 38 38 38 39 38 37 35 34 34 34 35 35 35 35 36 36 36 37 37 38 38 37 35 33 31 29 29 29 29 30 29 29 29 30 30 30 29 29 29
52 50 49 48 48 48 49 49 50 52 53 54 54 53 51 49 46 44 44 44 44 42 40 37 35 34 33 31 30 28 27 27 28 29 30 31 31 32 34 35 35 34 34 34 33 33 33 33 34 34 34 33 32 31 32 32 32 32 32 33 33 34 35 35 35 34 33 30 28 26 26 26 26 26 26 26 26 26 26 27 27 27 26 25 26
48 47 46 45 45 46 46 47 48 49 50 50 48 46 44 43 41 39 38 37 37 36 35 32 29 27 26 25 24 23 22 22 22 24 25 25 26 28 29 30 30 30 29 29 28 28 28 29 29 30 30 30 29 29 29 30 30 31 31 31 32 32 32 31 29 27 25 24 23 23 24 24 23 23 23 24 24 23 23 23 23 24 23 23 23
44 43 43 43 43 43 43 43 45 46 46 44 42 41 39 38 36 35 33 32 30 30 29 27 25 23 21 21 19 18 18 18 18 19 20 20 22 23 24 24 25 24 24 23 23 23 23 24 25 26 26 26 26 26 27 28 29 29 29 28 28 28 26 24 23 21 21 21 21 21 20 20 20 21 21 22 21 20 20 20 21 21 21 20 19
41 40 40 40 39 39 40 40 41 42 41 40 38 37 36 34 33 31 30 29 27 26 24 23 22 20 19 18 17 15 15 15 15 15 15 16 17 18 18 19 19 18 17 17 17 18 19 20 21 21 21 21 22 23 24 25 25 24 23 23 22 21 19 18 18 18 18 18 18 18 18 18 19 19 19 19 18 18 18 19 19 18 18 17 17
37 37 36 36 36 36 36 37 38 39 38 37 36 34 33 32 31 30 28 27 26 24 23 22 20 19 18 17 16 14 13 12 11 11 11 11 11 12 12 12 12 12 11 11 11 13 14 15 16 16 17 17 18 18 19 19 18 18 17 16 16 15 15 15 15 15 15 16 16 16 17 17 18 17 17 17 17 17 17 17 17 16 15 15 15
35 34 34 34 33 33 33 34 35 36 37 37 36 35 33 32 31 30 29 28 26 25 24 23 22 20 19 18 17 15 14 12 11 10 9 8 8 7 7 6 6 5 5 5 6 7 9 10 11 12 12 12 12 12 12 12 12 12 11 11 11 12 12 13 13 13 14 15 15 15 16 16 16 16 16 16 16 16 16 16 16 15 14 14 14
34 33 32 32 32 32 32 33 34 35 35 36 36 35 35 34 33 31 30 29 28 27 27 26 24 23 22 21 20 19 17 16 15 14 13 12 10 9 8 7 5 4 3 1 1 2 3 4 5 6 6 6 5 5 6 6 7 7 8 9 9 10 10 11 12 12 13 14 14 15 15 15 15 15 15 15 15 15 15 15 15 14 14 14 13
33 32 32 31 31 31 32 32 33 33 34 34 34 35 35 35 34 34 33 32 31 30 30 29 28 27 26 25 24 23 22 21 20 19 17 16 15 14 13 11 10 9 7 6 5 4 3 3 2 2 2 2 2 2 3 4 4 5 6 7 7 7 8 9 11 11 12 13 13 13 14 14 15 15 15 15 15 14 14 14 14 14 14 14 14
33 32 31 31 31 32 32 32 32 33 33 33 33 34 34 34 34 34 34 33 33 33 32 32 31 30 29 29 28 27 26 25 24 23 22 21 20 18 17 16 15 14 13 12 11 10 9 8 7 6 5 4 3 2 1 2 2 3 4 4 5 6 7 8 9 10 10 11 12 12 13 14 14 15 15 15 14 14 13 13 14 14 14 14 14
33 32 32 32 32 32 32 32 32 32 32 33 33 33 33 33 33 33 33 33 33 32 32 32 31 31 31 30 30 29 28 27 26 25 24 23 22 21 20 19 18 17 16 15 14 13 11 10 9 8 6 5 4 3 2 1 0 1 2 3 4 4 5 6 7 8 9 10 11 12 13 13 14 14 14 14 13 13 13 13 13 13 14 14 14
33 33 33 33 32 32 32 32 32 32 32 32 32 32 33 33 33 33 32 32 32 32 32 32 31 31 31 30 29 29 28 28 27 26 25 24 23 22 21 20 19 18 17 16 15 14 13 11 10 9 8 7 6 5 4 3 2 2 1 1 2 3 4 5 6 7 8 9 10 11 11 12 12 13 13 13 13 12 12 13 13 13 13 14 14
33 33 33 33 33 33 33 33 33 33 33 33 33 33 33 33 33 33 33 33 33 33 33 32 32 32 31 31 30 30 29 28 28 27 26 25 24 23 23 22 21 20 19 17 16 15 14 13 12 11 10 9 8 7 7 6 5 4 3 2 2 2 3 3 4 5 6 7 7 8 9 9 10 10 11 11 11 11 12 12 13 13 13 13 13
33 33 33 33 33 33 33 33 33 33 33 33 34 34 34 34 34 34 34 34 33 33 33 33 32 32 32 31 31 30 30 29 29 28 27 27 26 25 24 23 22 21 20 19 18 17 16 15 14 14 13 12 11 10 9 8 7 6 5 5 4 4 3 3 4 4 4 5 5 6 7 7 8 8 9 9 9 10 10 11 11 12 12 13 13
32 32 32 32 32 32 33 33 33 33 33 33 33 33 33 33 33 33 34 33 33 33 33 33 33 32 32 32 31 31 30 30 29 28 28 27 26 25 24 24 23 22 21 20 19 19 18 17 16 15 14 13 12 11 11 10 9 8 7 7 6 6 5 5 5 5 5 5 5 6 6 7 7 7 8 8 9 9 10 10 11 11 11 11 11
32 32 32 32 32 32 32 32 32 32 33 33 33 33 33 32 32 33 33 32 32 32 32 32 32 31 31 30 30 30 29 29 28 28 27 27 26 25 25 24 23 23 22 21 20 19 18 17 17 16 15 14 13 12 12 11 10 10 9 8 8 7 7 6 6 6 6 5 5 6 6 6 6 7 7 7 8 9 9 10 10 11 11 11 11
31 31 31 31 31 31 32 32 32 32 32 32 32 32 32 32 32 32 32 32 32 32 32 31 31 31 30 30 30 30 29 29 28 28 27 27 26 26 25 24 23 22 22 21 20 19 18 18 17 16 16 15 14 14 13 12 12 11 11 10 10 9 8 8 7 7 6 6 6 6 6 6 7 7 7 7 8 8 9 10 10 11 11 11 10
30 30 30 30 30 31 31 31 31 31 32 32 32 32 32 32 33 33 33 33 32 32 32 32 32 31 31 31 31 30 30 29 29 28 28 27 26 26 25 25 24 23 22 22 21 20 20 19 19 18 17 17 16 16 15 14 14 14 13 12 12 11 10 9 8 8 7 7 7 7 7 7 7 7 7 8 8 8 8 8 8 8 8 8 8
29 29 29 30 30 30 31 31 31 31 31 31 32 32 32 32 33 33 33 33 33 33 33 33 33 33 32 32 32 31 31 30 30 30 29 29 28 28 27 27 26 25 25 24 23 23 22 21 20 20 19 18 18 17 17 16 16 15 15 15 15 14 14 12 11 9 7 7 7 7 8 8 8 9 8 8 7 5 4 2 1 1 2 3 4
Wind_Direction
277 276 276 275 275 275 274 274 273 273 273 273 272 272 272 271 271 271 271 271 271 271 272 272 272 272 272 272 272 272 273 273 273 273 273 273 273 273 272 272 272 272 272 272 272 272 272 272 272 272 272 272 272 272 272 272 272 272 272 272 272 272 272 271 272 272 270 270 269 269 269 268 268 267 267 267 267 267 267 267 267 268 268 268 269
275 274 274 273 273 273 273 272 272 272 272 272 271 271 271 271 271 272 272 272 273 273 273 273 273 274 274 274 274 274 274 274 275 275 275 275 275 274 274 274 274 274 274 274 274 274 274 273 273 273 272 272 272 272 272 272 272 272 272 272 272 272 272 272 272 272 271 270 269 269 269 269 268 268 268 268 267 267 267 267 268 268 268 268 268
274 273 273 273 272 271 271 271 271 271 271 271 271 272 272 272 272 273 273 273 273 274 274 274 274 275 275 275 275 275 275 275 275 275 275 275 275 275 275 275 275 275 274 274 274 274 274 274 274 273 273 273 272 272 272 271 271 271 271 271 271 271 271 271 272 272 272 271 270 270 270 270 270 269 269 269 269 268 268 268 268 268 268 268 269
274 274 273 272 271 270 269 269 269 270 271 272 272 273 273 273 274 274 274 275 275 275 275 275 275 275 275 275 276 276 276 276 276 276 276 276 276 276 276 276 276 275 275 275 275 274 274 274 274 274 273 273 273 272 272 272 271 271 271 271 271 270 270 271 271 271 271 271 270 269 270 270 270 270 270 270 270 269 269 269 269 269 269 269 269
275 274 274 273 272 272 272 272 272 273 273 273 274 274 274 275 275 276 276 277 277 277 277 277 277 277 277 277 277 277 277 277 277 276 276 276 276 276 276 276 276 276 276 275 275 275 274 274 274 274 273 273 273 272 272 272 271 271 271 271 270 270 270 270 271 271 271 271 270 269 269 269 270 270 270 270 270 270 270 270 270 270 270 270 270
274 274 274 274 274 275 275 275 275 275 275 276 276 276 277 277 277 277 278 278 278 278 278 278 278 277 277 277 277 277 277 277 277 277 277 277 277 276 276 276 276 276 276 275 275 275 274 274 273 273 273 272 272 272 271 271 271 271 270 270 270 270 270 270 270 270 270 270 270 269 269 269 269 269 269 270 270 270 270 270 270 270 270 270 270
273 273 273 274 274 275 275 275 276 276 277 277 278 278 278 279 279 279 279 279 279 279 278 278 278 278 277 277 277 277 277 277 277 277 277 277 277 277 277 276 276 276 275 275 275 274 274 273 272 272 272 271 271 271 270 270 270 270 270 270 270 269 269 269 270 270 270 270 270 270 269 269 269 269 269 269 269 270 269 269 269 270 270 270 270
274 274 275 275 275 276 276 277 277 278 278 279 279 279 279 280 280 280 280 280 280 280 279 279 278 278 278 278 278 277 277 277 277 277 277 277 277 277 277 277 276 276 275 275 274 274 273 273 272 272 271 270 270 269 269 268 268 268 268 268 268 268 268 269 269 269 269 270 270 270 270 270 269 269 270 270 270 270 270 270 270 270 270 270 270
277 277 278 278 278 278 279 279 279 279 280 280 280 280 280 280 280 281 280 280 280 280 279 279 279 278 278 278 278 278 278 278 278 278 278 278 277 277 277 277 276 276 275 275 274 274 273 273 272 271 271 270 269 269 268 267 267 267 267 267 267 267 267 267 267 268 268 269 269 269 269 269 269 269 270 270 270 270 270 270 270 270 269 269 269
280 280 280 280 280 280 280 280 280 280 280 281 281 281 281 281 281 282 281 281 281 280 280 280 279 279 279 279 279 279 279 279 279 278 278 278 278 277 277 276 276 276 275 275 274 274 273 272 272 271 270 269 268 268 267 267 267 267 266 266 266 266 266 266 266 267 267 267 268 268 268 269 269 269 269 269 269 269 269 269 270 270 270 269 269
282 282 281 281 281 281 281 282 282 282 282 282 283 283 283 283 282 282 282 282 282 281 281 281 280 280 280 280 279 279 279 279 279 279 278 278 277 277 276 276 276 275 275 275 274 273 272 272 271 270 269 269 268 268 267 267 266 266 266 266 265 265 265 265 266 266 266 266 267 267 267 268 268 268 268 268 268 269 269 269 269 269 269 269 269
283 283 283 283 283 283 283 284 284 284 284 284 284 284 284 284 283 283 283 283 282 282 282 281 281 281 281 280 280 280 280 280 279 279 278 278 277 276 276 275 275 275 274 274 273 272 271 270 270 269 269 268 268 267 267 266 266 266 265 265 265 265 265 265 265 265 265 266 266 266 266 267 267 267 267 268 268 268 268 268 269 269 269 269 269
285 285 286 286 286 286 286 286 286 286 286 286 285 285 285 284 284 284 283 283 283 282 282 282 282 281 281 281 281 280 280 280 279 279 278 278 277 276 276 275 275 274 273 273 272 271 271 270 269 269 268 268 267 267 266 266 266 265 265 265 265 265 265 265 265 265 265 265 266 266 266 266 267 267 267 267 267 267 268 268 268 269 269 269 270
287 287 287 287 287 287 287 287 287 287 287 287 286 286 285 285 285 284 284 283 283 283 283 282 282 282 282 281 281 280 280 279 279 278 278 277 277 276 276 276 275 274 273 272 272 271 270 270 269 269 268 268 267 267 266 266 266 265 265 265 265 265 265 265 265 265 265 265 266 266 266 267 267 267 267 267 267 268 268 268 268 269 270 270 270
289 288 288 288 288 288 288 288 288 288 287 287 286 286 286 286 285 285 285 285 284 284 284 283 283 282 282 281 281 281 280 280 279 278 278 278 277 277 276 276 276 275 274 273 273 272 271 270 270 269 268 268 268 267 267 266 266 266 265 265 265 265 265 265 265 266 266 266 266 266 267 267 267 268 267 268 268 269 269 269 269 269 269 270 270
290 290 290 289 289 289 289 288 288 288 287 287 287 287 287 287 287 286 286 286 285 285 284 284 283 283 282 282 281 281 280 280 279 279 279 278 278 277 277 277 276 276 275 275 274 273 272 272 271 270 269 268 268 267 267 267 266 265 265 265 265 265 265 265 266 266 266 266 267 267 268 268 268 268 268 268 269 269 269 269 270 270 269 269 269
291 290 290 290 290 290 289 289 289 289 289 289 289 288 288 288 288 287 287 286 286 286 285 285 284 284 283 283 282 282 281 281 280 280 279 279 278 278 277 277 277 276 276 275 275 274 274 273 272 271 271 270 269 268 267 267 266 265 265 265 265 265 265 265 266 266 266 267 268 268 268 268 268 269 269 269 269 270 270 270 270 270 270 270 270
291 291 291 291 291 291 291 291 291 290 290 290 290 289 289 289 288 288 287 287 286 286 286 285 285 284 284 283 283 282 282 281 281 280 280 279 279 278 278 277 277 277 276 276 276 276 275 274 274 273 273 272 270 269 267 266 266 265 265 265 265 266 266 266 266 266 267 267 267 268 268 268 268 269 269 269 269 270 270 270 270 270 270 271 271
292 292 292 292 292 292 292 292 292 291 291 290 290 290 289 289 289 288 288 287 287 286 286 285 285 284 284 283 283 282 282 281 280 280 279 279 279 278 278 277 277 277 277 277 277 276 276 276 276 275 274 273 271 270 268 267 266 266 266 266 266 266 266 266 266 267 267 267 267 267 268 268 268 268 268 268 269 269 270 271 271 270 270 271 271
294 294 294 294 293 293 293 292 292 292 291 291 291 290 290 289 289 288 288 287 287 286 286 285 284 284 284 283 283 282 281 280 280 279 279 278 278 277 277 277 277 277 277 276 276 276 277 277 277 276 275 274 273 271 269 268 268 268 269 268 267 266 266 267 267 266 266 266 266 266 266 267 267 268 268 269 269 270 270 271 271 271 271 271 271
295 295 294 294 294 294 293 293 293 292 292 291 291 291 290 290 289 289 288 288 287 287 286 286 285 284 284 283 282 282 281 280 279 279 278 278 277 277 277 277 276 276 275 275 275 275 275 275 275 275 274 274 273 271 271 271 272 272 271 270 269 269 268 267 266 266 265 265 265 265 266 266 267 267 268 269 269 269 269 270 271 271 271 271 271
295 295 295 295 294 294 294 294 293 293 293 292 292 291 291 290 290 289 289 288 288 287 286 286 285 284 284 283 282 281 281 280 279 279 278 278 277 277 277 276 276 276 275 274 274 273 272 272 272 273 273 273 273 272 273 275 275 274 273 272 272 271 270 269 267 267 267 266 266 265 265 266 266 267 267 268 268 268 269 269 270 270 271 271 272
296 296 295 295 295 295 295 294 294 294 293 293 292 292 291 290 290 289 289 288 288 287 286 286 285 284 283 283 282 281 280 280 279 279 278 277 277 277 277 276 276 275 275 274 273 272 271 271 270 271 271 272 272 272 273 274 274 274 274 274 274 273 272 271 270 268 267 266 266 266 266 266 266 266 267 267 267 267 268 268 269 270 271 272 273
297 297 297 297 296 296 296 295 294 294 293 293 292 292 291 291 290 290 289 288 288 287 286 286 285 284 283 282 282 281 281 280 280 279 278 277 276 276 276 276 275 274 274 273 272 271 270 269 269 269 269 269 270 271 272 272 273 274 274 275 275 275 274 273 271 270 269 268 268 268 267 267 266 266 266 266 267 267 268 269 270 271 272 273 274
298 298 298 297 297 297 296 296 295 295 294 294 293 293 292 292 291 290 290 289 288 288 287 286 285 284 283 282 282 281 281 280 279 279 278 277 276 275 275 275 274 274 273 272 272 271 269 268 268 267 267 267 268 269 270 271 271 272 273 274 275 275 274 273 272 271 271 270 269 268 267 266 266 266 266 267 267 269 270 270 271 272 272 273 274
299 299 298 298 298 298 297 297 296 296 295 295 295 294 294 293 292 292 291 290 289 289 288 287 286 285 284 283 282 282 281 280 279 278 277 276 275 274 274 273 272 272 272 271 271 270 269 268 267 266 265 265 266 267 267 269 270 271 272 273 272 272 272 272 271 272 271 271 270 269 268 268 268 268 269 269 270 271 271 271 271 272 273 273 274
300 300 300 300 299 299 298 298 298 297 297 297 297 296 295 295 294 293 292 291 290 290 289 288 287 286 285 284 283 282 281 280 279 278 277 276 274 273 272 271 270 270 270 270 270 269 269 268 267 266 265 264 264 265 265 267 268 270 271 271 270 270 270 270 270 271 271 271 270 270 270 270 271 272 272 273 273 273 272 272 271 271 272 273 274
302 302 302 301 301 300 299 299 299 299 299 298 298 297 297 296 296 295 294 293 292 291 290 289 288 287 286 285 284 283 281 280 279 277 276 274 273 272 272 271 271 270 269 269 268 268 267 267 266 265 264 263 263 263 264 265 266 267 268 269 269 269 269 269 270 270 271 271 271 271 271 272 272 273 274 275 274 273 271 271 271 271 272 273 275
303 303 303 302 302 301 301 301 301 301 300 300 300 300 299 298 297 297 296 295 294 293 292 290 289 288 287 286 285 283 281 280 278 277 275 275 274 273 273 271 270 268 266 266 266 267 267 267 266 264 263 262 262 263 264 264 264 264 265 266 267 268 269 270 270 271 271 271 271 271 272 273 274 275 275 274 273 271 270 270 271 272 272 273 274
304 304 304 304 303 303 303 303 303 303 303 302 302 302 302 301 300 299 298 297 296 295 294 292 291 290 288 287 286 284 281 279 277 276 276 275 274 273 271 269 269 267 266 266 267 268 267 265 264 262 261 261 262 263 263 263 263 263 263 264 265 266 268 269 270 271 272 272 272 272 273 274 275 275 273 272 270 270 270 270 271 271 271 272 273
307 307 306 306 306 306 306 306 306 306 305 305 304 304 303 303 302 301 300 299 298 297 296 295 294 293 291 289 287 284 282 279 276 275 274 273 273 273 272 271 270 268 267 267 266 265 262 261 260 260 261 262 262 262 262 262 262 262 262 263 264 265 267 268 269 270 271 271 273 274 274 274 273 271 269 269 268 268 269 269 270 271 272 273 273
310 309 309 308 308 308 308 308 308 308 308 307 307 307 306 306 305 304 303 302 300 300 299 299 298 296 294 292 288 285 283 280 277 274 272 271 272 273 274 272 270 268 266 264 261 259 258 257 258 260 261 262 263 263 262 262 261 261 262 263 264 265 265 267 268 269 270 272 273 273 272 270 268 267 266 266 267 267 269 270 270 271 271 272 272
312 311 311 311 311 311 311 311 311 311 311 311 311 310 310 309 308 307 306 305 304 304 304 303 302 300 297 295 292 288 285 282 278 275 272 271 272 271 271 270 269 268 265 261 258 258 258 258 259 261 262 263 263 262 262 261 260 261 262 263 264 265 265 266 268 269 270 271 270 269 267 265 264 264 264 265 267 268 270 271 271 272 272 272 271
314 314 314 314 314 314 315 315 315 316 316 316 316 315 315 314 313 312 310 309 309 309 310 309 307 305 302 299 297 294 290 286 281 277 274 273 272 270 269 269 269 267 264 261 260 259 259 259 259 260 261 262 261 261 261 261 261 261 262 263 264 265 267 268 268 268 268 266 264 262 261 261 262 263 264 266 267 268 269 270 272 272 272 272 271
318 318 318 318 319 319 320 320 321 321 322 322 321 322 322 321 320 318 317 315 315 315 316 316 315 313 309 306 304 301 297 291 285 280 277 275 273 271 270 270 270 268 266 264 262 260 258 257 257 258 259 259 260 260 260 261 261 262 263 264 265 266 267 267 267 264 262 260 258 258 258 259 261 263 264 266 267 267 268 270 272 273 272 272 272
322 323 323 324 324 324 325 326 327 328 329 329 330 330 330 330 329 328 326 325 324 323 323 324 324 323 319 316 314 310 303 296 290 285 281 278 275 274 273 273 272 271 268 266 263 260 258 257 257 257 258 258 259 259 259 261 261 262 263 264 264 264 264 263 261 259 257 256 256 256 257 258 261 262 263 265 267 269 269 270 271 273 274 275 275
328 328 328 329 330 330 332 334 335 337 339 339 340 340 341 341 341 340 339 338 337 336 335 335 335 334 331 328 326 323 316 309 302 296 291 287 283 281 279 277 276 275 271 266 261 258 256 255 256 256 257 257 257 257 258 260 261 263 263 262 261 260 258 256 255 256 256 256 255 255 256 256 258 260 262 266 268 269 269 270 271 273 276 277 277
334 334 335 336 337 338 340 343 345 348 351 352 352 352 353 354 355 355 355 354 353 353 352 352 351 351 349 346 345 343 339 334 328 321 313 306 299 295 292 289 286 282 276 268 260 255 254 254 255 256 256 256 256 257 258 259 260 259 258 255 254 253 253 254 254 254 254 253 252 253 254 255 256 259 263 267 267 267 267 269 272 273 275 277 278
342 343 343 345 346 347 349 352 355 358 1 4 5 5 5 6 7 9 10 11 12 12 13 13 13 13 13 12 12 12 10 8 5 1 356 349 342 336 332 325 318 309 294 275 260 253 251 250 251 253 254 255 256 256 255 253 252 250 249 249 249 251 253 253 252 249 249 250 251 252 252 253 255 260 264 266 266 265 266 268 270 272 274 274 275
350 351 352 353 354 355 357 360 2 5 8 11 13 16 17 18 19 20 22 23 25 26 27 29 30 31 33 34 35 36 36 36 37 37 37 37 37 38 39 40 42 45 50 59 226 238 241 244 246 249 250 250 246 241 236 236 237 240 244 247 248 249 249 250 249 249 250 251 251 251 251 253 257 262 266 266 266 265 266 267 268 270 271 271 271
356 357 358 359 360 1 3 5 7 9 12 14 17 20 23 25 27 29 31 33 34 36 37 38 40 41 43 44 46 47 48 49 51 52 53 54 56 58 60 62 65 68 71 74 78 81 84 91 99 109 118 132 157 180 202 219 230 239 246 251 252 251 251 252 253 253 252 252 251 251 253 256 260 263 266 267 267 267 267 267 267 267 267 267 267
1 2 2 2 4 5 6 7 9 11 13 16 19 22 25 27 30 32 35 37 39 41 43 44 46 47 49 50 52 53 54 55 57 58 59 61 62 63 65 66 68 69 71 73 74 77 79 82 85 89 94 101 113 133 174 217 239 250 256 259 258 255 252 252 253 253 252 251 252 254 257 261 265 267 269 271 271 270 269 268 266 265 265 265 265
6 6 6 7 8 9 9 10 12 14 16 18 20 23 25 28 30 32 35 37 40 42 44 46 47 49 51 52 54 55 57 58 59 60 61 62 63 64 65 66 67 68 69 71 72 73 75 77 79 80 81 83 85 85 82 74 306 275 265 260 256 253 252 251 253 254 255 256 258 261 264 267 270 271 272 273 272 271 269 267 266 265 264 263 262
11 12 13 14 14 15 16 17 19 20 22 23 25 27 28 30 32 34 36 38 40 41 43 45 47 48 50 52 53 54 56 57 58 59 60 61 62 63 64 64 65 66 67 68 68 69 70 71 71 72 71 71 70 69 67 63 60 53 22 299 273 265 264 263 263 265 266 267 268 270 271 272 273 272 272 271 271 269 268 266 265 264 263 261 260
16 17 18 20 20 21 22 24 25 26 28 29 30 32 33 34 36 37 39 40 42 43 44 46 47 48 50 51 52 53 55 55 57 58 59 59 60 61 62 62 63 64 65 66 66 67 67 67 67 67 66 66 65 64 61 58 54 49 40 24 356 323 302 292 286 284 282 281 280 279 279 279 278 276 275 273 272 270 269 267 265 263 262 261 259
18 20 21 22 24 25 26 27 29 30 31 32 34 35 36 37 38 40 41 42 44 45 46 48 49 50 51 52 53 54 55 56 57 58 58 59 60 60 61 62 62 63 63 64 64 64 64 64 64 63 62 61 60 59 57 55 51 47 42 34 24 12 359 343 328 319 311 306 302 298 297 294 291 288 285 281 278 274 270 268 265 263 261 260 258
19 21 22 24 25 27 28 29 31 32 33 34 35 37 38 39 40 41 43 44 45 47 48 49 50 51 52 53 54 55 56 56 57 57 58 58 59 59 60 60 61 61 62 62 62 62 62 61 61 60 59 58 56 55 52 50 47 43 38 32 25 18 10 1 353 344 336 329 322 317 313 308 303 299 294 289 284 279 275 271 268 266 263 260 258
19 21 22 24 25 26 27 29 30 31 32 33 34 36 37 38 40 41 42 43 45 46 47 48 49 50 51 51 52 53 54 54 55 56 56 57 58 58 59 59 59 60 60 60 59 59 58 57 56 55 54 52 51 49 47 45 43 40 37 33 29 25 19 14 8 2 356 350 344 337 332 326 320 315 308 301 294 289 283 278 273 269 265 261 257
19 21 22 23 24 25 26 27 29 30 32 33 34 36 37 38 40 41 42 43 44 45 46 47 48 49 50 50 51 52 53 54 54 55 55 56 56 56 56 56 56 55 55 55 54 54 53 53 52 51 50 49 48 46 45 43 41 39 37 34 31 28 23 20 16 13 9 7 3 358 354 348 341 333 326 317 308 299 290 282 275 269 264 258 251
20 21 22 23 25 26 28 29 30 32 33 35 36 37 38 40 41 42 43 44 45 46 47 48 48 49 50 50 51 52 52 52 53 53 53 53 53 52 52 52 52 51 51 51 51 51 50 50 50 49 49 48 47 46 45 44 43 41 39 37 34 31 26 21 16 13 11 12 13 10 6 1 354 347 340 330 320 309 297 287 277 268 261 251 240
20 22 23 24 26 27 29 31 32 34 35 37 38 39 41 42 43 44 45 46 47 47 48 49 49 50 50 51 51 52 52 52 52 52 52 52 52 52 52 51 51 51 50 50 50 50 50 49 49 49 49 49 49 48 48 47 47 46 46 44 42 38 33 28 23 19 17 21 24 22 18 15 11 6 1 359 357 358 0 2 9 94 141 152 159
Height
5501 5499 5497 5495 5494 5492 5490 5489 5487 5486 5484 5482 5480 5478 5476 5475 5473 5472 5470 5468 5467 5466 5464 5463 5461 5459 5457 5456 5454 5453 5451 5450 5448 5447 5445 5443 5442 5441 5439 5438 5436 5435 5433 5432 5431 5430 5430 5429 5428 5427 5426 5425 5425 5423 5421 5419 5417 5415 5414 5412 5411 5407 5404 5401 5398 5404 5420 5424 5421 5421 5418 5414 5417 5418 5415 5416 5418 5415 5413 5414 5414 5413 5413 5413 5414
5493 5491 5489 5487 5486 5484 5481 5480 5478 5477 5475 5473 5471 5469 5467 5465 5463 5462 5461 5459 5457 5456 5454 5452 5451 5449 5447 5445 5443 5442 5441 5439 5437 5435 5433 5432 5430 5428 5427 5425 5424 5422 5421 5419 5417 5415 5414 5414 5413 5413 5412 5411 5411 5409 5407 5405 5403 5401 5400 5397 5396 5395 5390 5386 5384 5386 5397 5408 5408 5405 5403 5398 5400 5404 5401 5398 5402 5402 5398 5399 5400 5398 5397 5398 5399
5484 5482 5480 5479 5477 5475 5473 5471 5469 5468 5466 5464 5462 5459 5457 5456 5454 5453 5452 5449 5448 5446 5444 5442 5441 5438 5437 5435 5432 5431 5429 5427 5426 5423 5421 5420 5418 5416 5414 5413 5411 5410 5408 5406 5404 5402 5400 5399 5398 5397 5396 5395 5395 5394 5392 5390 5388 5386 5385 5384 5380 5380 5377 5371 5368 5369 5374 5386 5392 5390 5387 5383 5382 5387 5387 5382 5384 5387 5383 5383 5384 5383 5382 5382 5383
5474 5472 5471 5469 5467 5466 5464 5463 5461 5460 5458 5456 5453 5450 5448 5446 5444 5442 5441 5439 5437 5436 5433 5431 5429 5427 5425 5423 5421 5419 5417 5415 5413 5411 5409 5407 5405 5403 5401 5399 5397 5396 5394 5393 5391 5389 5387 5385 5384 5381 5380 5379 5379 5378 5375 5373 5372 5369 5368 5368 5365 5363 5362 5357 5353 5353 5354 5362 5373 5375 5372 5368 5366 5368 5370 5367 5366 5368 5367 5366 5367 5367 5366 5366 5367
5464 5462 5460 5459 5457 5456 5455 5454 5452 5450 5448 5446 5443 5441 5438 5436 5434 5432 5430 5428 5426 5424 5421 5419 5417 5415 5413 5410 5408 5405 5403 5401 5399 5397 5394 5392 5390 5389 5387 5385 5383 5381 5380 5378 5376 5375 5373 5371 5370 5367 5364 5364 5363 5362 5359 5356 5354 5352 5350 5350 5349 5346 5344 5342 5338 5337 5336 5340 5351 5357 5356 5353 5350 5350 5351 5350 5348 5349 5349 5348 5348 5349 5349 5350 5351
5455 5453 5451 5450 5447 5446 5445 5443 5441 5439 5437 5434 5432 5430 5427 5425 5423 5420 5418 5416 5413 5411 5408 5406 5403 5401 5399 5396 5394 5392 5389 5387 5385 5382 5379 5377 5374 5372 5371 5370 5368 5366 5365 5363 5361 5359 5358 5356 5354 5351 5349 5348 5347 5345 5343 5339 5336 5335 5333 5332 5332 5329 5326 5326 5323 5320 5318 5320 5327 5335 5339 5338 5334 5333 5334 5334 5330 5331 5332 5331 5330 5331 5332 5333 5334
5447 5444 5442 5440 5438 5436 5435 5432 5430 5427 5425 5423 5420 5418 5415 5413 5410 5407 5405 5402 5400 5398 5395 5392 5389 5386 5384 5382 5379 5376 5374 5371 5369 5366 5363 5360 5357 5354 5353 5352 5351 5350 5348 5347 5345 5343 5341 5339 5338 5336 5333 5330 5330 5328 5326 5323 5319 5317 5316 5314 5313 5311 5309 5308 5307 5304 5302 5303 5306 5311 5317 5320 5318 5316 5317 5317 5313 5312 5313 5312 5313 5316 5315 5314 5316
5437 5435 5432 5430 5428 5426 5423 5420 5418 5416 5413 5411 5408 5405 5402 5400 5397 5394 5391 5388 5385 5383 5380 5377 5374 5370 5367 5365 5363 5360 5358 5355 5352 5349 5345 5342 5338 5336 5335 5334 5332 5332 5330 5329 5327 5325 5323 5322 5320 5318 5316 5313 5311 5310 5307 5305 5302 5300 5299 5297 5294 5293 5292 5291 5290 5288 5286 5286 5288 5290 5293 5297 5300 5299 5299 5298 5295 5293 5293 5291 5293 5299 5300 5297 5297
5427 5424 5421 5419 5417 5414 5411 5408 5406 5403 5400 5397 5395 5392 5389 5386 5383 5380 5376 5373 5370 5367 5364 5361 5358 5355 5351 5348 5345 5343 5340 5337 5334 5331 5327 5322 5318 5316 5315 5314 5313 5312 5311 5310 5308 5306 5304 5303 5301 5299 5296 5294 5292 5290 5288 5286 5283 5281 5281 5280 5276 5274 5274 5274 5272 5271 5270 5269 5270 5272 5273 5275 5280 5282 5281 5280 5277 5275 5275 5272 5271 5276 5280 5279 5280
5416 5413 5410 5408 5405 5402 5398 5396 5393 5390 5387 5384 5380 5377 5374 5371 5368 5364 5361 5357 5354 5350 5347 5344 5340 5337 5335 5331 5328 5325 5321 5318 5315 5311 5307 5302 5298 5296 5294 5293 5292 5292 5292 5291 5289 5287 5284 5282 5281 5278 5275 5274 5271 5269 5267 5266 5264 5262 5261 5261 5258 5256 5256 5256 5255 5254 5254 5253 5253 5255 5254 5255 5260 5262 5261 5262 5260 5256 5256 5254 5251 5254 5258 5258 5261
5405 5401 5399 5396 5393 5389 5386 5383 5379 5376 5372 5369 5365 5361 5358 5355 5351 5348 5344 5340 5336 5333 5330 5326 5322 5319 5315 5313 5310 5307 5302 5298 5294 5290 5286 5281 5277 5274 5272 5272 5272 5271 5272 5271 5270 5267 5264 5261 5259 5257 5255 5253 5251 5248 5247 5246 5245 5243 5241 5240 5238 5237 5238 5238 5238 5237 5236 5235 5237 5238 5236 5236 5240 5242 5242 5244 5242 5237 5236 5235 5234 5235 5238 5237 5240
5392 5389 5385 5382 5379 5375 5371 5368 5364 5360 5357 5352 5349 5345 5341 5338 5334 5330 5327 5322 5318 5315 5311 5307 5303 5299 5295 5293 5291 5287 5283 5278 5273 5268 5264 5259 5254 5250 5249 5250 5252 5253 5252 5250 5247 5245 5242 5240 5238 5236 5234 5233 5230 5229 5227 5226 5225 5223 5221 5220 5219 5219 5219 5220 5220 5220 5219 5218 5218 5220 5220 5219 5221 5224 5226 5225 5222 5219 5218 5218 5217 5217 5218 5218 5219
5378 5375 5371 5367 5363 5359 5356 5352 5348 5344 5339 5335 5331 5327 5323 5320 5316 5312 5309 5304 5300 5297 5292 5288 5284 5280 5276 5273 5270 5267 5262 5257 5252 5247 5242 5237 5232 5226 5223 5227 5232 5233 5231 5228 5224 5222 5220 5218 5217 5216 5214 5211 5210 5209 5207 5205 5205 5203 5201 5201 5201 5201 5201 5201 5201 5202 5202 5201 5201 5202 5204 5202 5202 5207 5210 5207 5201 5199 5200 5201 5202 5201 5199 5200 5201
5364 5360 5355 5351 5347 5344 5340 5336 5331 5327 5322 5317 5313 5309 5304 5301 5297 5292 5288 5285 5281 5277 5272 5268 5264 5259 5255 5252 5250 5246 5241 5235 5231 5226 5221 5216 5210 5204 5201 5204 5209 5209 5207 5204 5203 5201 5199 5197 5197 5197 5196 5192 5189 5188 5186 5186 5185 5184 5182 5182 5182 5184 5184 5183 5184 5184 5184 5184 5183 5185 5188 5187 5185 5188 5192 5188 5181 5179 5182 5184 5187 5187 5184 5183 5183
5350 5345 5340 5335 5332 5328 5323 5319 5314 5309 5305 5299 5295 5290 5286 5282 5278 5273 5268 5264 5260 5256 5251 5247 5243 5238 5234 5230 5228 5225 5220 5214 5209 5205 5200 5194 5189 5184 5182 5184 5185 5185 5184 5182 5181 5180 5179 5177 5177 5178 5178 5175 5172 5169 5167 5166 5165 5164 5163 5164 5164 5165 5166 5167 5168 5167 5166 5165 5165 5168 5172 5172 5170 5169 5171 5171 5166 5163 5164 5167 5170 5171 5168 5165 5164
5335 5329 5324 5319 5315 5311 5306 5302 5297 5292 5286 5281 5276 5271 5266 5262 5257 5252 5248 5244 5238 5233 5229 5225 5221 5217 5212 5208 5205 5203 5199 5193 5188 5185 5180 5174 5169 5165 5164 5165 5165 5164 5165 5163 5161 5160 5160 5159 5158 5158 5159 5159 5157 5153 5150 5148 5146 5144 5145 5146 5146 5148 5151 5152 5152 5151 5151 5150 5151 5152 5155 5155 5154 5152 5153 5154 5152 5148 5146 5148 5153 5152 5148 5146 5148
5319 5314 5309 5303 5299 5294 5289 5284 5279 5274 5268 5262 5257 5252 5247 5242 5237 5231 5226 5222 5217 5212 5207 5203 5199 5194 5191 5187 5183 5182 5180 5174 5169 5166 5163 5156 5151 5148 5148 5148 5147 5147 5147 5145 5144 5144 5143 5142 5141 5141 5142 5143 5142 5138 5134 5130 5126 5126 5128 5130 5131 5133 5136 5136 5136 5136 5138 5138 5138 5138 5138 5138 5137 5136 5137 5137 5135 5132 5129 5132 5137 5134 5128 5128 5132
5304 5299 5293 5287 5281 5276 5271 5265 5260 5255 5249 5243 5238 5233 5228 5222 5216 5211 5206 5201 5197 5192 5187 5184 5179 5174 5171 5168 5164 5162 5161 5157 5152 5150 5146 5140 5135 5132 5132 5133 5132 5132 5131 5130 5130 5129 5128 5126 5125 5125 5128 5128 5126 5123 5118 5111 5108 5109 5113 5117 5119 5120 5121 5121 5121 5124 5126 5125 5124 5123 5123 5123 5122 5122 5122 5121 5119 5117 5113 5115 5120 5118 5114 5113 5115
5288 5282 5276 5270 5264 5259 5253 5247 5241 5236 5230 5224 5219 5213 5208 5203 5197 5192 5187 5182 5178 5174 5170 5166 5163 5159 5154 5151 5148 5145 5144 5142 5138 5134 5131 5126 5120 5116 5116 5118 5118 5118 5117 5117 5117 5115 5114 5113 5112 5112 5113 5112 5110 5108 5102 5094 5092 5096 5101 5105 5106 5105 5106 5108 5110 5112 5112 5111 5110 5109 5109 5109 5107 5106 5107 5107 5106 5105 5101 5099 5102 5103 5101 5100 5100
5272 5266 5260 5254 5248 5241 5235 5229 5223 5217 5211 5206 5200 5195 5189 5184 5179 5174 5169 5164 5160 5158 5154 5150 5147 5144 5140 5136 5133 5129 5127 5126 5123 5119 5116 5113 5107 5101 5101 5104 5104 5104 5104 5104 5104 5103 5102 5101 5100 5099 5098 5097 5096 5094 5086 5079 5081 5087 5090 5091 5091 5090 5095 5099 5098 5098 5098 5097 5096 5096 5096 5095 5093 5092 5093 5094 5094 5093 5089 5086 5086 5087 5085 5085 5087
5256 5250 5243 5237 5231 5224 5217 5211 5205 5199 5193 5187 5183 5178 5172 5166 5162 5157 5153 5148 5144 5141 5138 5134 5131 5129 5125 5121 5117 5114 5110 5109 5108 5105 5101 5098 5093 5087 5087 5090 5090 5089 5091 5091 5092 5093 5091 5089 5087 5086 5085 5084 5082 5079 5073 5069 5074 5079 5078 5075 5075 5078 5084 5086 5084 5083 5084 5085 5084 5084 5084 5083 5082 5081 5081 5082 5082 5080 5077 5075 5074 5072 5069 5070 5073
5240 5234 5227 5221 5214 5208 5201 5195 5188 5182 5176 5170 5166 5162 5156 5150 5145 5141 5136 5132 5129 5125 5122 5118 5115 5113 5109 5105 5101 5098 5095 5093 5092 5090 5087 5084 5080 5074 5073 5076 5076 5075 5077 5078 5078 5079 5079 5077 5076 5075 5074 5072 5069 5066 5065 5064 5066 5067 5065 5063 5064 5067 5070 5071 5071 5071 5072 5072 5072 5073 5072 5071 5071 5071 5070 5070 5069 5068 5066 5065 5063 5059 5057 5057 5059
5225 5218 5211 5205 5198 5192 5185 5179 5173 5166 5161 5156 5151 5147 5141 5135 5130 5125 5121 5117 5113 5109 5106 5102 5100 5097 5094 5090 5086 5083 5080 5078 5076 5075 5073 5071 5068 5062 5060 5062 5063 5061 5062 5064 5065 5065 5066 5065 5065 5064 5064 5062 5058 5056 5058 5058 5056 5055 5054 5054 5054 5056 5057 5058 5059 5059 5059 5059 5060 5061 5061 5061 5061 5060 5060 5059 5058 5056 5055 5054 5052 5049 5047 5047 5048
5210 5203 5196 5189 5183 5177 5171 5165 5159 5153 5147 5142 5137 5132 5127 5121 5116 5111 5106 5101 5098 5095 5091 5088 5085 5082 5079 5077 5073 5069 5066 5064 5062 5060 5058 5057 5055 5051 5048 5048 5049 5048 5048 5049 5051 5052 5053 5053 5053 5054 5054 5051 5048 5047 5049 5049 5048 5047 5046 5045 5046 5046 5047 5047 5047 5047 5048 5049 5050 5051 5051 5050 5050 5050 5050 5049 5048 5047 5046 5044 5043 5040 5039 5039 5039
5196 5189 5183 5176 5170 5164 5158 5152 5145 5139 5134 5128 5123 5118 5112 5107 5102 5097 5092 5087 5083 5080 5077 5074 5070 5067 5064 5062 5060 5056 5053 5051 5048 5045 5043 5042 5041 5039 5036 5036 5035 5035 5035 5036 5037 5039 5040 5041 5042 5043 5043 5041 5040 5039 5039 5039 5039 5040 5039 5039 5039 5038 5038 5038 5038 5038 5040 5041 5041 5042 5042 5041 5041 5041 5041 5040 5040 5039 5037 5036 5034 5032 5031 5031 5031
5183 5177 5170 5164 5158 5152 5146 5139 5132 5126 5120 5114 5109 5103 5098 5093 5089 5084 5079 5074 5070 5066 5063 5060 5056 5052 5049 5047 5046 5043 5040 5037 5034 5031 5029 5027 5026 5026 5025 5024 5023 5022 5023 5024 5025 5026 5028 5029 5030 5032 5032 5031 5031 5031 5030 5031 5031 5031 5032 5032 5032 5031 5030 5030 5031 5031 5032 5033 5034 5035 5034 5033 5033 5033 5033 5032 5032 5030 5029 5028 5027 5025 5023 5023 5024
5171 5164 5158 5152 5146 5139 5133 5126 5120 5114 5108 5102 5096 5090 5085 5080 5075 5071 5066 5061 5057 5053 5049 5045 5041 5038 5035 5033 5031 5029 5026 5023 5020 5017 5015 5014 5013 5012 5011 5011 5011 5012 5013 5013 5013 5015 5017 5019 5019 5020 5021 5022 5022 5022 5022 5023 5024 5024 5024 5025 5025 5024 5024 5024 5025 5025 5026 5027 5027 5027 5026 5025 5026 5026 5025 5024 5024 5022 5020 5020 5020 5019 5017 5016 5017
5159 5152 5146 5140 5134 5127 5121 5115 5109 5104 5098 5091 5085 5079 5073 5067 5062 5058 5052 5047 5043 5039 5035 5032 5027 5024 5021 5019 5017 5015 5013 5010 5007 5004 5002 5000 5000 4999 4999 4999 5001 5003 5003 5003 5002 5004 5007 5009 5009 5010 5011 5012 5012 5013 5014 5016 5017 5017 5017 5017 5017 5017 5017 5018 5019 5019 5019 5020 5020 5020 5019 5018 5018 5018 5017 5016 5015 5014 5012 5012 5012 5012 5011 5010 5011
5148 5141 5136 5129 5123 5117 5110 5105 5099 5094 5088 5082 5075 5068 5062 5056 5050 5045 5040 5033 5029 5025 5021 5018 5014 5011 5008 5006 5004 5002 5001 4998 4995 4992 4990 4989 4989 4990 4990 4989 4990 4992 4992 4992 4993 4996 4999 5000 5000 5000 5001 5002 5003 5005 5007 5009 5009 5010 5010 5010 5010 5010 5011 5011 5012 5012 5012 5013 5013 5013 5013 5012 5011 5010 5010 5009 5008 5006 5006 5006 5006 5006 5006 5005 5006
5138 5131 5125 5119 5113 5107 5101 5095 5090 5084 5078 5073 5066 5059 5051 5044 5037 5032 5027 5022 5016 5011 5008 5005 5002 4999 4997 4994 4992 4990 4989 4987 4984 4982 4980 4980 4980 4980 4980 4979 4980 4981 4982 4984 4987 4990 4992 4992 4990 4990 4992 4993 4996 4999 5000 5001 5002 5002 5002 5003 5003 5004 5004 5005 5005 5006 5006 5006 5006 5006 5006 5005 5004 5003 5003 5002 5002 5000 5000 5000 5000 5000 5000 5000 5000
5129 5122 5116 5110 5104 5099 5093 5087 5082 5076 5069 5063 5057 5051 5044 5035 5026 5019 5014 5010 5005 5000 4997 4994 4991 4988 4986 4985 4982 4980 4978 4976 4975 4974 4972 4971 4970 4970 4971 4972 4972 4973 4975 4978 4980 4982 4982 4982 4981 4982 4984 4987 4990 4992 4993 4994 4995 4995 4995 4996 4997 4998 4998 4998 4999 4999 4999 4999 4999 4999 4999 4998 4998 4997 4997 4996 4996 4995 4995 4995 4995 4995 4995 4995 4995
5120 5114 5108 5102 5096 5091 5086 5080 5074 5068 5062 5055 5048 5042 5035 5028 5019 5009 5003 4999 4995 4992 4988 4985 4982 4979 4976 4975 4973 4971 4969 4967 4967 4966 4965 4963 4963 4963 4964 4964 4964 4965 4968 4970 4971 4972 4973 4974 4975 4976 4978 4981 4983 4986 4987 4987 4988 4988 4989 4990 4991 4991 4992 4993 4993 4993 4993 4993 4993 4992 4992 4992 4992 4992 4992 4991 4991 4991 4990 4990 4990 4990 4990 4990 4990
5112 5106 5101 5095 5090 5084 5079 5073 5067 5061 5054 5047 5040 5033 5026 5019 5013 5004 4996 4990 4986 4984 4981 4978 4974 4971 4968 4966 4965 4963 4962 4960 4959 4959 4958 4957 4958 4958 4957 4957 4957 4959 4961 4962 4963 4965 4967 4969 4970 4971 4973 4975 4978 4980 4980 4981 4982 4982 4983 4984 4985 4985 4986 4987 4987 4987 4987 4987 4987 4987 4987 4987 4987 4987 4987 4987 4987 4987 4986 4986 4986 4986 4986 4986 4985
5104 5099 5095 5090 5084 5078 5073 5067 5061 5054 5047 5040 5032 5025 5018 5011 5005 5000 4993 4985 4980 4977 4975 4973 4969 4965 4962 4960 4958 4957 4956 4955 4954 4953 4952 4952 4953 4953 4952 4951 4952 4953 4955 4956 4958 4961 4963 4964 4966 4967 4968 4970 4972 4974 4975 4976 4976 4977 4978 4979 4980 4980 4980 4981 4981 4981 4981 4981 4982 4982 4982 4983 4983 4983 4983 4983 4983 4983 4983 4982 4982 4982 4981 4981 4980
5098 5093 5089 5084 5078 5073 5067 5061 5055 5048 5041 5034 5026 5019 5012 5005 4999 4994 4989 4983 4977 4972 4969 4967 4965 4962 4958 4956 4954 4953 4952 4951 4949 4949 4948 4948 4948 4948 4948 4947 4948 4949 4950 4952 4955 4957 4958 4960 4961 4963 4964 4966 4968 4969 4970 4971 4971 4972 4973 4974 4974 4974 4975 4975 4976 4976 4977 4977 4978 4978 4979 4979 4979 4980 4980 4979 4979 4979 4979 4979 4978 4977 4977 4977 4976
5094 5088 5083 5078 5073 5068 5062 5057 5051 5044 5036 5029 5022 5015 5008 5002 4996 4990 4985 4981 4976 4971 4967 4963 4961 4958 4955 4953 4951 4950 4948 4947 4946 4946 4945 4945 4945 4945 4945 4945 4945 4946 4947 4949 4951 4953 4955 4956 4957 4959 4961 4962 4963 4965 4965 4966 4967 4968 4969 4969 4970 4970 4970 4971 4972 4972 4973 4974 4974 4975 4975 4976 4976 4976 4976 4976 4976 4976 4976 4975 4975 4974 4974 4974 4973
5090 5085 5080 5075 5070 5064 5059 5053 5047 5040 5033 5026 5019 5012 5006 4999 4994 4988 4983 4978 4974 4970 4966 4962 4959 4957 4954 4951 4950 4948 4947 4945 4945 4944 4943 4943 4943 4943 4943 4943 4943 4944 4945 4947 4949 4950 4951 4953 4954 4956 4957 4958 4960 4961 4961 4962 4963 4964 4965 4965 4966 4966 4967 4968 4969 4969 4970 4971 4971 4972 4972 4973 4973 4973 4973 4973 4973 4973 4972 4972 4972 4971 4971 4970 4970
5087 5082 5077 5072 5067 5062 5057 5051 5045 5038 5032 5025 5018 5011 5005 4999 4993 4988 4983 4978 4974 4970 4966 4962 4959 4956 4954 4951 4949 4948 4946 4945 4944 4943 4943 4942 4942 4942 4942 4942 4942 4943 4944 4945 4947 4948 4949 4951 4952 4953 4954 4955 4957 4958 4958 4959 4960 4961 4962 4962 4963 4964 4965 4965 4966 4967 4967 4968 4969 4969 4970 4970 4970 4970 4970 4970 4970 4970 4970 4969 4969 4969 4968 4968 4967
5085 5080 5075 5071 5066 5061 5056 5050 5045 5038 5032 5025 5018 5012 5006 5000 4995 4989 4984 4980 4975 4971 4967 4964 4960 4958 4955 4952 4950 4949 4947 4946 4945 4944 4943 4943 4942 4942 4942 4942 4943 4943 4944 4945 4946 4947 4948 4949 4950 4951 4953 4954 4955 4956 4956 4957 4958 4959 4960 4961 4961 4962 4963 4963 4964 4965 4965 4965 4966 4967 4967 4967 4967 4967 4968 4968 4967 4967 4967 4967 4966 4966 4966 4966 4965
5084 5079 5074 5069 5065 5060 5055 5050 5045 5039 5033 5027 5020 5015 5008 5003 4997 4992 4987 4982 4978 4974 4970 4967 4963 4960 4958 4955 4953 4951 4949 4948 4947 4946 4945 4944 4944 4944 4943 4943 4944 4944 4945 4946 4946 4947 4948 4949 4950 4951 4952 4953 4954 4955 4955 4956 4957 4958 4959 4959 4960 4961 4961 4962 4962 4963 4963 4963 4964 4964 4965 4965 4965 4965 4965 4965 4965 4965 4965 4964 4964 4964 4964 4963 4963
5084 5079 5074 5070 5065 5060 5055 5050 5045 5040 5034 5029 5023 5017 5012 5006 5001 4996 4991 4987 4982 4978 4974 4971 4967 4964 4962 4959 4957 4955 4953 4952 4950 4949 4948 4947 4947 4946 4946 4946 4946 4946 4947 4947 4948 4949 4949 4950 4951 4952 4952 4953 4954 4955 4955 4956 4957 4957 4958 4959 4959 4960 4960 4960 4961 4961 4961 4962 4962 4962 4963 4963 4963 4963 4963 4963 4962 4962 4962 4962 4962 4962 4961 4961 4961
5084 5079 5075 5070 5065 5060 5056 5051 5046 5041 5036 5031 5026 5020 5015 5010 5006 5001 4996 4992 4987 4983 4979 4976 4973 4970 4967 4964 4962 4960 4958 4956 4955 4953 4952 4951 4951 4950 4950 4949 4949 4949 4950 4950 4950 4951 4951 4952 4953 4953 4954 4954 4955 4955 4956 4956 4957 4957 4958 4958 4958 4959 4959 4959 4959 4960 4960 4960 4960 4961 4961 4961 4961 4961 4961 4960 4960 4960 4960 4960 4960 4960 4959 4959 4959
5084 5080 5075 5070 5066 5061 5057 5052 5048 5043 5038 5033 5028 5024 5019 5014 5010 5005 5001 4997 4993 4989 4985 4982 4978 4975 4973 4970 4968 4965 4963 4962 4960 4959 4957 4956 4956 4955 4954 4954 4953 4953 4953 4953 4954 4954 4954 4954 4955 4955 4955 4956 4956 4956 4957 4957 4957 4957 4958 4958 4958 4958 4958 4958 4958 4959 4959 4959 4959 4959 4959 4959 4959 4959 4958 4958 4958 4958 4958 4958 4957 4957 4957 4957 4957
5085 5081 5076 5072 5067 5063 5059 5054 5049 5045 5040 5036 5031 5027 5022 5018 5014 5009 5005 5001 4998 4994 4990 4987 4984 4981 4978 4976 4973 4971 4969 4967 4966 4964 4963 4962 4961 4960 4959 4958 4958 4957 4957 4957 4957 4957 4957 4957 4957 4957 4957 4957 4957 4957 4958 4958 4958 4958 4958 4958 4958 4958 4958 4958 4958 4958 4958 4958 4958 4957 4957 4957 4957 4956 4956 4956 4956 4956 4955 4955 4955 4955 4955 4955 4955
5087 5082 5078 5073 5069 5065 5061 5056 5052 5048 5043 5039 5034 5030 5026 5022 5018 5014 5010 5006 5002 4999 4995 4992 4989 4986 4984 4981 4979 4977 4975 4973 4971 4969 4968 4967 4966 4964 4964 4963 4962 4961 4961 4961 4960 4960 4960 4960 4960 4959 4959 4959 4959 4959 4959 4959 4959 4959 4959 4958 4958 4958 4958 4958 4958 4957 4957 4957 4957 4956 4956 4955 4955 4955 4954 4954 4954 4953 4953 4953 4953 4953 4952 4952 4952
5089 5084 5080 5076 5071 5067 5063 5059 5055 5050 5046 5042 5038 5034 5030 5026 5022 5018 5015 5011 5007 5004 5001 4998 4995 4992 4989 4987 4984 4982 4980 4978 4976 4975 4973 4972 4971 4969 4968 4967 4967 4966 4965 4965 4964 4964 4963 4963 4962 4962 4962 4961 4961 4961 4961 4960 4960 4960 4960 4959 4959 4959 4958 4958 4958 4957 4957 4956 4956 4955 4955 4954 4954 4953 4953 4952 4952 4952 4951 4951 4951 4950 4950 4950 4950
5091 5086 5082 5078 5074 5070 5066 5062 5058 5054 5050 5046 5042 5038 5034 5030 5027 5023 5019 5016 5013 5009 5006 5003 5000 4997 4995 4992 4990 4988 4986 4984 4982 4980 4978 4977 4976 4974 4973 4972 4971 4970 4969 4968 4968 4967 4967 4966 4965 4965 4964 4964 4963 4963 4962 4962 4962 4961 4961 4960 4960 4959 4959 4958 4958 4957 4956 4956 4955 4955 4954 4953 4953 4952 4952 4951 4950 4950 4949 4949 4949 4948 4948 4948 4948
5092 5088 5084 5080 5076 5072 5068 5065 5061 5057 5053 5049 5046 5042 5038 5035 5031 5027 5024 5021 5017 5014 5011 5008 5005 5003 5000 4998 4995 4993 4991 4989 4987 4985 4983 4982 4980 4979 4978 4976 4975 4974 4973 4972 4971 4971 4970 4969 4968 4967 4967 4966 4965 4965 4964 4963 4963 4962 4961 4961 4960 4959 4959 4958 4957 4957 4956 4955 4955 4954 4953 4953 4952 4951 4950 4950 4949 4948 4948 4947 4947 4946 4946 4946 4946
5094 5090 5086 5082 5079 5075 5071 5067 5064 5060 5056 5053 5049 5046 5042 5039 5035 5032 5028 5025 5022 5019 5016 5013 5010 5008 5005 5003 5000 4998 4996 4994 4992 4990 4988 4986 4985 4983 4982 4981 4979 4978 4977 4976 4975 4974 4973 4972 4971 4970 4969 4968 4967 4966 4966 4965 4964 4963 4962 4962 4961 4960 4959 4958 4958 4957 4956 4955 4955 4954 4953 4952 4951 4950 4949 4948 4947 4947 4946 4945 4945 4944 4944 4944 4944
5096 5092 5088 5085 5081 5077 5074 5070 5067 5063 5059 5056 5053 5049 5046 5042 5039 5036 5032 5029 5026 5023 5021 5018 5015 5012 5010 5007 5005 5003 5001 4998 4996 4995 4993 4991 4989 4988 4986 4985 4983 4982 4980 4979 4978 4977 4976 4974 4973 4972 4971 4970 4969 4968 4967 4966 4965 4965 4964 4963 4962 4961 4960 4959 4958 4957 4956 4955 4955 4954 4953 4952 4951 4950 4949 4947 4946 4945 4944 4943 4942 4942 4942 4942 4943
5097 5094 5090 5087 5083 5080 5076 5073 5069 5066 5063 5059 5056 5053 5049 5046 5043 5040 5037 5034 5031 5028 5025 5022 5020 5017 5015 5012 5010 5007 5005 5003 5001 4999 4997 4995 4994 4992 4990 4989 4987 4986 4984 4983 4981 4980 4979 4978 4976 4975 4974 4973 4972 4971 4970 4969 4968 4967 4965 4964 4963 4962 4961 4960 4958 4957 4956 4956 4955 4954 4953 4952 4951 4950 4948 4947 4945 4944 4943 4942 4942 4941 4942 4942 4943